Tracking 31011 objects as of 12-Jul-2025
HD Live streaming from Space Station
objects crossing your sky now

IRIDIUM 33 DEB

Track IRIDIUM 33 DEB now!
10-day predictions


NORAD ID: 36490
Int'l Code: 1997-051WG
Perigee: 661.7 km
Apogee: 662.7 km
Inclination: 86.4 °
Period: 97.8 minutes
Semi major axis: 7033 km
RCS: 0.0086 m2 (small)
Launch date: September 14, 1997
Source: United States (US)
Launch site: TYURATAM MISSILE AND SPACE COMPLEX (TTMTR)

Note: This is SATELLITE DEBRIS
Your satellite tracking list
Your tracking list is empty




NASA's NSSDC Master Catalog

Two Line Element Set (TLE):
1 36490U 97051WG  25192.64718779  .00004672  00000-0  74267-3 0  9990
2 36490  86.3646  79.6933 0000709 132.3863 227.7414 14.71896090842158
Source of the keplerian elements: AFSPC